Погода в Архангельском

Россия / Республика Башкортостан     54°24′27″N   56°47′10″E
темп.,
°C
ветер,
м/с
пор.,
м/с
влажн.,
%
обл.,
%
осадки,
мм/ч
давл.,
гПа
погр.,
м
12 мая, ср
ср1223:00+15всв2250100 0.0 102712
02:00+13в1155100 0.0 102711
05:00+11вюв1163100 0.0 102810
08:00+16юв115371 0.0 1029122
11:00+22юз223551 0.0 1029797
14:00+25зюз22304 0.0 10281891
17:00+25з33301 0.0 10271934
20:00+20сз22540 0.0 102711
13 мая, чт
чт1323:00+15в11630 0.0 102811
02:00+13ю11700 0.0 102811
05:00+12юв11760 0.0 102910
08:00+17юв01610 0.0 1029156
11:00+24в01430 0.0 1028610
14:00+28зюз12320 0.0 10271845
17:00+27з22310 0.0 10262084
20:00+22з12560 0.0 102612
14 мая, пт
пт1423:00+17ю11670 0.0 102711
02:00+15ююв11730 0.0 102711
05:00+14юв11750 0.0 102811
08:00+18ю12580 0.0 1028158
11:00+24юз24390 0.0 1028737
14:00+26юз34290 0.0 10271509
17:00+26юз343226 0.0 10261718
20:00+22ю22575 0.0 102517
15 мая, сб
сб1523:00+17ююв22613 0.0 102612
02:00+16ююв11636 0.0 102512
05:00+14ююв11645 0.0 102611
08:00+19ю13555 0.0 1026180
11:00+25юз34415 0.0 1025605
14:00+28юз34335 0.0 10241565
17:00+28юз34325 0.0 10241828
20:00+23ю22561 0.0 102314
16 мая, вс
вс1623:00+18ююв22621 0.0 102312
02:00+16юв11614 0.0 102211
05:00+15юв11645 0.0 102311
08:00+20ю13545 0.0 1023153
11:00+26юз34400 0.0 1022690
14:00+29юз44323 0.0 10212044
17:00+29ююз25304 0.0 10202666
20:00+20сз245243 0.3 102067